Back to catalog

MINOTAUR R/B

AlivePO
NORAD 37365·ROCKET BODY·🇺🇸 United States

Launched Feb 6, 2011 from Vandenberg Space Force Base

Loading…

Next Passes (next 24 hours)

TLE

StaleSource: Mike McCants

Epoch: Aug 19, 2026, 20:33 UTC

1 37365U 11006B   26231.85669081 0.00000000  00000-0  00000-0 0    02
2 37365  90.1792  94.5996 0005000   7.2915 352.7083 13.11922404    00

Track MINOTAUR R/B in real time with AllMySat

Download on the App Store